Radiation Dose at Monitoring Post of Fukushima Daini Nuclear Power Station
Date,Time,MP-1(microSv/h),MP-2(microSv/h),MP-3(microSv/h),MP-4(microSv/h),MP-5(microSv/h),MP-6(microSv/h),MP-7(microSv/h),Wind Direction,Wind Velocity(m/s),Rain
2017/05/05,00:00,0.381,0.230,0.398,0.368,0.332,0.193,0.166,south-southwest,7.8,No
2017/05/05,00:10,0.383,0.231,0.398,0.370,0.329,0.194,0.167,south-southwest,9.2,No
2017/05/05,00:20,0.383,0.231,0.398,0.367,0.334,0.193,0.166,south-southwest,9.1,No
2017/05/05,00:30,0.382,0.231,0.398,0.368,0.330,0.193,0.167,south-southwest,9.3,No
2017/05/05,00:40,0.383,0.231,0.400,0.371,0.330,0.193,0.166,south-southwest,8.0,No
2017/05/05,00:50,0.381,0.231,0.399,0.367,0.332,0.193,0.167,southwest,6.5,No
2017/05/05,01:00,0.381,0.230,0.398,0.371,0.329,0.192,0.166,southwest,5.4,No
2017/05/05,01:10,0.382,0.230,0.400,0.368,0.331,0.192,0.165,south-southwest,5.9,No
2017/05/05,01:20,0.384,0.231,0.397,0.370,0.330,0.193,0.166,south-southwest,5.4,No
2017/05/05,01:30,0.380,0.230,0.402,0.369,0.331,0.192,0.167,south-southwest,5.4,No
2017/05/05,01:40,0.382,0.230,0.400,0.369,0.330,0.192,0.167,south-southwest,4.2,No
2017/05/05,01:50,0.383,0.231,0.399,0.370,0.328,0.193,0.166,south-southwest,4.5,No
2017/05/05,02:00,0.381,0.230,0.397,0.367,0.330,0.194,0.166,south,5.4,No
2017/05/05,02:10,0.383,0.229,0.398,0.369,0.329,0.193,0.166,south-southwest,5.0,No
2017/05/05,02:20,0.383,0.230,0.401,0.368,0.331,0.193,0.166,south-southwest,4.4,No
2017/05/05,02:30,0.382,0.230,0.398,0.368,0.329,0.194,0.167,south-southwest,4.5,No
2017/05/05,02:40,0.383,0.230,0.400,0.368,0.330,0.193,0.166,south-southwest,5.0,No
2017/05/05,02:50,0.382,0.231,0.398,0.368,0.330,0.193,0.166,south-southwest,5.1,No
2017/05/05,03:00,0.383,0.230,0.398,0.370,0.330,0.195,0.166,south-southwest,4.2,No
2017/05/05,03:10,0.383,0.229,0.399,0.366,0.330,0.193,0.167,south-southwest,4.9,No
2017/05/05,03:20,0.381,0.231,0.398,0.368,0.330,0.192,0.167,south,5.3,No
2017/05/05,03:30,0.383,0.232,0.399,0.369,0.329,0.193,0.167,south-southwest,5.1,No
2017/05/05,03:40,0.381,0.231,0.399,0.367,0.331,0.192,0.166,south-southwest,5.5,No
2017/05/05,03:50,0.383,0.230,0.399,0.370,0.330,0.193,0.167,south-southwest,4.8,No
2017/05/05,04:00,0.382,0.230,0.400,0.367,0.330,0.194,0.166,south-southwest,5.2,No
2017/05/05,04:10,0.382,0.230,0.398,0.367,0.330,0.193,0.167,south-southwest,4.7,No
2017/05/05,04:20,0.383,0.230,0.399,0.368,0.329,0.193,0.168,southwest,3.3,No
2017/05/05,04:30,0.381,0.232,0.400,0.368,0.332,0.193,0.167,west-southwest,4.2,No
2017/05/05,04:40,0.382,0.231,0.398,0.369,0.329,0.193,0.166,southwest,3.8,No
2017/05/05,04:50,0.383,0.230,0.399,0.368,0.330,0.193,0.167,south,3.1,No
2017/05/05,05:00,0.383,0.231,0.399,0.367,0.331,0.193,0.165,south,4.8,No
2017/05/05,05:10,0.383,0.232,0.398,0.369,0.329,0.192,0.168,south-southwest,6.6,No
2017/05/05,05:20,0.382,0.229,0.401,0.368,0.331,0.193,0.166,south-southwest,7.0,No
2017/05/05,05:30,0.382,0.231,0.396,0.367,0.330,0.193,0.166,southwest,6.3,No
2017/05/05,05:40,0.383,0.231,0.397,0.369,0.330,0.194,0.166,south-southwest,5.1,No
2017/05/05,05:50,0.381,0.230,0.399,0.367,0.329,0.191,0.166,south-southwest,6.0,No
2017/05/05,06:00,0.384,0.231,0.398,0.368,0.329,0.194,0.166,south-southwest,7.5,No
2017/05/05,06:10,0.382,0.231,0.398,0.368,0.331,0.191,0.167,southwest,7.3,No
2017/05/05,06:20,0.383,0.231,0.398,0.369,0.329,0.194,0.165,south-southwest,6.4,No
2017/05/05,06:30,0.381,0.229,0.398,0.369,0.331,0.194,0.167,south-southwest,6.4,No
2017/05/05,06:40,0.382,0.230,0.396,0.368,0.328,0.192,0.165,south-southwest,7.3,No
2017/05/05,06:50,0.381,0.230,0.398,0.368,0.332,0.193,0.165,south-southwest,6.8,No
2017/05/05,07:00,0.385,0.230,0.399,0.366,0.329,0.192,0.166,south-southwest,6.1,No
2017/05/05,07:10,0.381,0.230,0.399,0.366,0.331,0.193,0.166,south-southwest,5.8,No
2017/05/05,07:20,0.383,0.229,0.393,0.367,0.328,0.192,0.164,south-southwest,5.6,No
2017/05/05,07:30,0.380,0.228,0.396,0.363,0.332,0.193,0.166,south-southwest,6.1,No
2017/05/05,07:40,0.381,0.232,0.396,0.367,0.327,0.193,0.165,south-southwest,6.6,No
2017/05/05,07:50,0.378,0.229,0.393,0.368,0.331,0.193,0.165,south,7.6,No
2017/05/05,08:00,0.382,0.229,0.399,0.364,0.327,0.193,0.166,south,8.7,No
2017/05/05,08:10,0.381,0.230,0.396,0.366,0.330,0.193,0.166,south-southwest,6.2,No
2017/05/05,08:20,0.378,0.229,0.397,0.369,0.330,0.193,0.164,south-southwest,6.0,No
2017/05/05,08:30,0.380,0.229,0.400,0.365,0.327,0.192,0.166,south-southwest,6.7,No
2017/05/05,08:40,0.380,0.230,0.397,0.363,0.329,0.193,0.165,south,5.6,No
2017/05/05,08:50,0.381,0.231,0.400,0.363,0.330,0.192,0.164,south-southwest,6.4,No
2017/05/05,09:00,0.379,0.230,0.397,0.363,0.328,0.192,0.165,south-southwest,6.9,No
2017/05/05,09:10,0.380,0.229,0.396,0.365,0.327,0.193,0.167,south-southwest,5.8,No
2017/05/05,09:20,0.383,0.229,0.401,0.369,0.329,0.194,0.167,south,5.4,No
2017/05/05,09:30,0.381,0.231,0.396,0.368,0.331,0.193,0.166,south,8.2,No
2017/05/05,09:40,0.379,0.229,0.399,0.367,0.329,0.192,0.165,south,8.5,No
2017/05/05,09:50,0.378,0.229,0.401,0.365,0.328,0.193,0.166,south,9.2,No
2017/05/05,10:00,0.378,0.228,0.395,0.365,0.326,0.193,0.167,south,9.8,No
2017/05/05,10:10,0.384,0.231,0.398,0.364,0.327,0.193,0.165,south,9.9,No
2017/05/05,10:20,0.383,0.231,0.400,0.365,0.331,0.192,0.167,south-southwest,11.0,No
2017/05/05,10:30,0.380,0.230,0.398,0.366,0.330,0.192,0.166,south,11.2,No
2017/05/05,10:40,0.378,0.228,0.395,0.371,0.327,0.193,0.166,south,12.8,No
2017/05/05,10:50,0.379,0.231,0.393,0.368,0.327,0.193,0.167,south,13.6,No
2017/05/05,11:00,0.378,0.231,0.393,0.367,0.330,0.193,0.167,south,12.1,No
2017/05/05,11:10,0.385,0.231,0.395,0.366,0.332,0.194,0.166,south,12.3,No
2017/05/05,11:20,0.382,0.229,0.400,0.366,0.330,0.192,0.167,south,12.6,No
2017/05/05,11:30,0.381,0.231,0.398,0.371,0.327,0.193,0.166,south,12.9,No
2017/05/05,11:40,0.379,0.232,0.398,0.369,0.328,0.193,0.166,south,13.5,No
2017/05/05,11:50,0.378,0.231,0.396,0.367,0.331,0.192,0.167,south,12.6,No
2017/05/05,12:00,0.383,0.229,0.394,0.364,0.332,0.192,0.166,south,13.8,No
2017/05/05,12:10,0.385,0.231,0.393,0.369,0.328,0.194,0.167,south,14.6,No
2017/05/05,12:20,0.383,0.231,0.395,0.370,0.327,0.192,0.169,south,14.6,No
2017/05/05,12:30,0.377,0.229,0.400,0.368,0.332,0.192,0.167,south,14.8,No
2017/05/05,12:40,0.382,0.230,0.401,0.366,0.330,0.192,0.166,south,15.1,No
2017/05/05,12:50,0.384,0.231,0.398,0.365,0.328,0.193,0.167,south,14.0,No
2017/05/05,13:00,0.380,0.230,0.396,0.370,0.329,0.193,0.166,south,13.9,No
2017/05/05,13:10,0.380,0.230,0.396,0.369,0.332,0.193,0.168,south,13.4,No
2017/05/05,13:20,0.385,0.232,0.395,0.366,0.332,0.192,0.167,south,13.9,No
2017/05/05,13:30,0.382,0.231,0.394,0.366,0.328,0.193,0.166,south,13.7,No
2017/05/05,13:40,0.380,0.230,0.396,0.369,0.326,0.192,0.167,south,14.3,No
2017/05/05,13:50,0.382,0.229,0.399,0.369,0.330,0.194,0.167,south,12.9,No
2017/05/05,14:00,0.384,0.231,0.402,0.369,0.331,0.193,0.166,south,12.1,No
2017/05/05,14:10,0.382,0.231,0.399,0.365,0.330,0.193,0.167,south,13.9,No
2017/05/05,14:20,0.380,0.230,0.397,0.368,0.327,0.194,0.167,south,13.9,No
2017/05/05,14:30,0.378,0.229,0.396,0.371,0.328,0.193,0.166,south,13.0,No
2017/05/05,14:40,0.384,0.232,0.395,0.368,0.333,0.193,0.168,south,11.8,No
2017/05/05,14:50,0.382,0.230,0.397,0.367,0.330,0.191,0.167,south,12.6,No
2017/05/05,15:00,0.382,0.230,0.402,0.370,0.328,0.194,0.166,south,13.6,No
2017/05/05,15:10,0.387,0.231,0.399,0.370,0.329,0.194,0.167,south,14.7,No
2017/05/05,15:20,0.383,0.232,0.397,0.370,0.331,0.193,0.167,south,12.4,No
2017/05/05,15:30,0.382,0.230,0.399,0.372,0.330,0.194,0.168,south,11.5,No
2017/05/05,15:40,0.385,0.232,0.402,0.368,0.328,0.194,0.167,south,13.6,No
2017/05/05,15:50,0.383,0.231,0.399,0.371,0.327,0.193,0.167,south,12.6,No
2017/05/05,16:00,0.383,0.232,0.399,0.372,0.332,0.192,0.167,south,12.6,No
2017/05/05,16:10,0.385,0.230,0.401,0.367,0.330,0.194,0.168,south,12.1,No
2017/05/05,16:20,0.381,0.232,0.398,0.372,0.326,0.193,0.167,south,11.9,No
2017/05/05,16:30,0.385,0.231,0.404,0.368,0.329,0.191,0.167,south,10.7,No
2017/05/05,16:40,0.384,0.230,0.399,0.372,0.332,0.194,0.167,south,11.9,No
2017/05/05,16:50,0.381,0.231,0.399,0.369,0.330,0.193,0.168,south,10.2,No
2017/05/05,17:00,0.385,0.231,0.400,0.370,0.327,0.193,0.166,south-southwest,10.2,No
2017/05/05,17:10,0.381,0.232,0.400,0.372,0.333,0.194,0.167,south-southwest,9.7,No
2017/05/05,17:20,0.386,0.230,0.403,0.369,0.331,0.193,0.166,south-southwest,10.4,No
2017/05/05,17:30,0.382,0.233,0.398,0.370,0.330,0.194,0.169,south-southwest,9.2,No
2017/05/05,17:40,0.383,0.230,0.402,0.368,0.332,0.193,0.167,south-southwest,10.6,No
2017/05/05,17:50,0.383,0.231,0.397,0.372,0.330,0.196,0.167,south-southwest,10.1,No
2017/05/05,18:00,0.385,0.231,0.402,0.369,0.334,0.193,0.166,south-southwest,10.5,No
2017/05/05,18:10,0.383,0.231,0.400,0.371,0.330,0.193,0.167,south-southwest,11.1,No
2017/05/05,18:20,0.384,0.230,0.398,0.369,0.332,0.193,0.167,south,11.8,No
2017/05/05,18:30,0.384,0.232,0.400,0.372,0.331,0.193,0.168,south,9.6,No
2017/05/05,18:40,0.382,0.230,0.400,0.370,0.330,0.193,0.167,south,10.9,No
2017/05/05,18:50,0.385,0.231,0.402,0.372,0.331,0.194,0.168,south,8.5,No
2017/05/05,19:00,0.382,0.231,0.401,0.369,0.330,0.194,0.167,south,7.8,No
2017/05/05,19:10,0.385,0.232,0.400,0.371,0.332,0.194,0.167,south-southwest,8.8,No
2017/05/05,19:20,0.383,0.232,0.401,0.370,0.331,0.193,0.167,south-southwest,9.8,No
2017/05/05,19:30,0.385,0.233,0.401,0.370,0.331,0.193,0.168,south-southwest,10.1,No
2017/05/05,19:40,0.381,0.233,0.399,0.369,0.329,0.193,0.166,south,10.1,No
2017/05/05,19:50,0.385,0.232,0.399,0.371,0.332,0.193,0.166,south,9.0,No
2017/05/05,20:00,0.382,0.232,0.399,0.369,0.330,0.193,0.167,south,7.9,No
2017/05/05,20:10,0.386,0.231,0.401,0.370,0.333,0.193,0.168,south,7.2,No
2017/05/05,20:20,0.381,0.231,0.399,0.369,0.331,0.193,0.167,south,8.6,No
2017/05/05,20:30,0.385,0.232,0.398,0.372,0.331,0.194,0.167,south-southwest,7.8,No
2017/05/05,20:40,0.383,0.231,0.401,0.369,0.328,0.193,0.167,south-southwest,8.3,No
2017/05/05,20:50,0.386,0.232,0.400,0.373,0.331,0.193,0.167,south,7.0,No
2017/05/05,21:00,0.382,0.231,0.401,0.369,0.330,0.193,0.167,south-southwest,7.8,No
2017/05/05,21:10,0.385,0.231,0.399,0.371,0.331,0.194,0.167,south,7.8,No
2017/05/05,21:20,0.383,0.231,0.401,0.369,0.330,0.192,0.167,south-southwest,7.6,No
2017/05/05,21:30,0.385,0.232,0.398,0.373,0.331,0.192,0.166,south-southwest,7.8,No
2017/05/05,21:40,0.381,0.231,0.401,0.369,0.329,0.193,0.168,south-southwest,7.7,No
2017/05/05,21:50,0.385,0.231,0.398,0.371,0.330,0.193,0.167,south-southwest,7.1,No
2017/05/05,22:00,0.383,0.232,0.403,0.368,0.331,0.194,0.168,south-southwest,5.6,No
2017/05/05,22:10,0.386,0.232,0.400,0.373,0.333,0.194,0.166,south-southwest,4.7,No
2017/05/05,22:20,0.382,0.232,0.402,0.368,0.331,0.193,0.167,south,5.3,No
2017/05/05,22:30,0.386,0.231,0.399,0.373,0.330,0.193,0.167,south-southwest,5.6,No
2017/05/05,22:40,0.383,0.232,0.403,0.368,0.331,0.194,0.167,south,5.9,No
2017/05/05,22:50,0.385,0.233,0.399,0.371,0.331,0.194,0.168,south-southwest,5.4,No
2017/05/05,23:00,0.384,0.230,0.402,0.370,0.333,0.194,0.167,south-southwest,4.7,No
2017/05/05,23:10,0.385,0.231,0.401,0.370,0.330,0.194,0.169,south-southwest,3.4,No
2017/05/05,23:20,0.382,0.232,0.400,0.370,0.333,0.194,0.167,south-southwest,2.5,No
2017/05/05,23:30,0.386,0.232,0.401,0.370,0.329,0.194,0.168,south-southwest,3.0,No
2017/05/05,23:40,0.383,0.232,0.400,0.370,0.332,0.194,0.168,south-southwest,2.2,No
2017/05/05,23:50,0.385,0.232,0.405,0.370,0.331,0.194,0.167,southwest,1.6,No
